User: anonymous   Login
Location: Natural Bridges National Monument
(37.6093°N, 109.9767°W)
Time: 17:16:04
(UTC-06:00)
Language:

Cosmos 1727 Rocket - Orbit

View from above orbital plane
View from above orbital plane
View from above satellite
View from above satellite

Ground track
Ground track

The orbit data is extracted from the following two-line orbital elements,

1 16511U 86008B   16237.17255828  .00000113  00000-0  10074-3 0  9993
2 16511  82.9417  80.1922 0025018  35.1102  93.4960 13.75810231535439
Epoch (UTC): 24 August 2016 04:08:29
Eccentricity: 0.0025018
inclination: 82.9417°
perigee height: 960 km
apogee height: 997 km
right ascension of ascending node: 80.1922°
argument of perigee: 35.1102°
revolutions per day: 13.75810231
mean anomaly at epoch: 93.4960°
orbit number at epoch: 53543

The dashed part of the orbit path shows where the satellite is in the earth's shadow,  

DLR